User: anonymous
Location: Vancouver
(49.2500°N, 123.1330°W)
Time: 12:44:00
(UTC-07:00)
Language:

BREEZE-M DEB (TANK) - Orbit

View from above orbital plane
View from above orbital plane
View from above satellite
View from above satellite

Ground track
Ground track

The orbit data is extracted from the following two-line orbital elements,

1 27821U 03024B   14259.40193775  .00005451  00000-0  62724-3 0  4765
2 27821 049.5829 085.8064 5010601 353.0216 021.0379 05.63099083223117
Epoch (UTC): 16 September 2014 09:38:47
Eccentricity: 0.5010601
inclination: 49.5829°
perigee height: 280 km
apogee height: 13654 km
right ascension of ascending node: 85.8064°
argument of perigee: 353.0216°
revolutions per day: 5.63099083
mean anomaly at epoch: 21.0379°
orbit number at epoch: 22311

The dashed part of the orbit path shows where the satellite is in the earth's shadow,  

DLR